Location: Finney State Fishing Lake and Wildlife Area
(38.1834°N, 100.3310°W)
Time: 09:49:34
(UTC+00:00)

Cosmos 1953 - Pass Details

Date: 17 October 2021
Orbit: 537 x 557 km, 82.5° (Epoch: 28 November)

Event Time Altitude Azimuth Distance (km) Brightness Sun altitude
Rises 12:08:05 0° 354° (N) 2,741 5.8 -9.4°
Reaches altitude 10° 12:10:17 10° 356° (N) 1,839 4.9 -9.0°
Maximum altitude 12:14:19 76° 83° (E) 573 2.6 -8.2°
Drops below altitude 10° 12:18:19 10° 169° (SSE) 1,812 5.2 -7.4°
Sets 12:20:27 0° 171° (S) 2,697 6.1 -7.0°
